Regional Weather Roundup
Issued by NWS Goodland, KS

Home | Current Version | Previous Version | Graphics & Text | Print | Product List | Glossary On
Versions: 1 2 3 4 5 6 7 8 9 10 11 12 13 14 15 16 17 18 19 20 21 22 23 24 25 26 27 28 29 30 31 32 33 34 35 36 37 38 39 40 41 42 43 44 45 46 47 48 49 50
000
ASUS43 KGLD 250708
RWRGLD

GOODLAND FORECAST AREA HOURLY WEATHER ROUNDUP
NATIONAL WEATHER SERVICE GOODLAND KS
100 AM MDT FRI JUL 25 2014

...OFFICIAL OBSERVATIONS...

CITY           SKY/WX    TMP DP  RH WIND       PRES   REMARKS
GOODLAND KS    CLOUDY    76  56  49 S8        29.92F
HILL CITY KS   MOCLDY    86  65  49 S18G24    29.85S
IMPERIAL NEB   PTCLDY    72  58  61 W12       29.86F
MCCOOK NEB     PTCLDY    80  57  45 S13       29.82F
AKRON CO       PTCLDY    74  51  44 W13       29.99F
BURLINGTON CO  CLOUDY    74  55  51 S6        29.96F
LIMON CO       MOCLDY    68  55  63 CALM      30.08R
$$

...UNOFFICIAL OBSERVATIONS...

CITY           SKY/WX    TMP DP  RH WIND       PRES   REMARKS
COLBY KS       CLEAR     82  57  42 S13G18    29.91F
GOVE KS          N/A     81  32  17 MISG        N/A
LENORA KS        N/A     83  32  16 MISG        N/A
NORTON KS      CLEAR     82  61  47 S14G21    29.84S
OBERLIN KS     FAIR      77  55  47 S9        29.84
SHARON SPRINGS   N/A     77  55  46 S9          N/A
ST FRANCIS KS  CLOUDY    77  50  38 SW6       29.87F
KIT CARSON CO    N/A     77  55  45 N6G14       N/A
WRAY CO          N/A     66  57  72 W3        29.89
YUMA CO          N/A     64  57  78 CALM        N/A
$$



USA.gov is the U.S. government's official web portal to all federal, state and local government web resources and services.